Location: Hines Observatory
(31.5604°N, 83.5172°W)
Time: 13:33:37
(UTC-04:00)

Daily predictions for brighter satellites

Satellite Brightness Start Highest point End
(mag) Time Altitude Azimuth Time Altitude Azimuth Time Altitude Azimuth
Cosmos 1500 Rocket 3.7 21:04:20 10° S 21:08:35 55° E 21:12:54 10° NNE
Cosmos 371 Rocket 3.3 21:05:20 10° NNW 21:10:09 89° W 21:14:57 10° SSE
Cosmos 1833 4.2 21:06:23 10° SSW 21:12:06 85° ESE 21:17:49 10° NNE
Tiangong 1 2.4 21:09:10 10° W 21:12:10 42° NNW 21:15:09 10° NE
NOSS 3-1 (C) 3.6 21:08:20 10° S 21:13:42 44° ESE 21:19:30 10° NE
Cosmos 2151 3.9 21:16:17 10° SSE 21:19:55 29° E 21:23:34 10° NNE
Delta 2 Rocket 4.1 21:19:45 10° WNW 21:23:30 43° N 21:26:54 10° ENE
Cosmos 2058 4.4 21:21:45 10° SE 21:24:36 19° E 21:27:28 10° NE
H-2A R/B 2.7 21:21:08 10° SSE 21:24:58 90° W 21:28:47 10° NNW
Hubble Space Telescope 1.9 21:21:41 10° SW 21:25:05 25° SSE 21:28:18 11° ESE
S3M 4.0 21:19:17 10° N 21:25:25 80° E 21:31:34 10° S
Cosmos 2228 Rocket 3.4 21:21:32 10° N 21:26:02 73° W 21:30:33 10° S
CZ-2D R/B 4.1 21:29:51 10° S 21:33:38 51° W 21:37:24 10° NNW
COSMOS 2428 4.2 21:29:53 10° N 21:34:13 22° ENE 21:37:58 12° ESE
Resurs 01 Rocket 4.3 21:33:16 10° SW 21:36:03 16° W 21:38:50 10° NW
Cosmos 1437 Rocket 2.6 21:35:14 10° N 21:39:04 74° E 21:42:57 10° SSE
deb Chang Zheng 4 3.6 21:35:43 10° NNE 21:40:01 61° E 21:44:19 10° S
Cosmos 1515 Rocket 3.6 21:38:17 10° N 21:42:42 81° W 21:47:04 10° S
SJ-11-01 4.4 21:38:18 11° SSE 21:42:50 62° ENE 21:47:31 10° N
Cosmos 304 Rocket 4.1 21:38:38 10° N 21:43:18 49° ENE 21:46:51 17° SE
Cosmos 1726 4.3 21:42:05 10° NE 21:43:26 12° ENE 21:44:08 11° E
Cosmos 1939 Rocket 3.3 21:43:38 17° SE 21:46:21 42° ENE 21:50:02 10° N
Meteor 2-20 Rocket 4.4 21:41:31 10° S 21:47:39 82° E 21:53:48 10° N
Cosmos 1633 Rocket 4.4 21:46:59 18° ESE 21:48:29 21° E 21:51:45 10° NE
Cosmos 1151 Rocket 3.0 21:46:46 10° N 21:51:05 68° E 21:54:38 15° SSE
CZ-4 DEB 3.8 21:48:38 10° S 21:51:42 44° W 21:54:46 10° NNW
CZ-4B R/B 4.5 21:48:42 10° NE 21:53:06 27° E 21:55:24 20° SE
Cosmos 883 Rocket 4.5 21:47:45 10° N 21:53:54 65° E 21:59:15 14° SSE
SPOT 5 3.6 21:51:24 19° ESE 21:53:56 33° ENE 21:58:14 10° N
DELTA 2 R/B (1) 3.7 21:49:39 10° WNW 21:55:13 73° NNE 21:59:15 19° ESE
Cosmos 2219 3.5 21:53:37 10° SSW 21:59:20 73° WNW 22:05:06 10° NNE
Aureole 3 4.4 21:58:05 10° S 22:04:57 85° E 22:10:25 10° N
Cosmos 1805 Rocket 3.6 22:01:46 16° S 22:05:17 62° E 22:09:41 10° NNE
Cosmos 1680 Rocket 3.5 22:00:30 10° NNW 22:05:46 81° ENE 22:09:18 21° SSE
Cosmos 1328 3.8 22:02:41 10° S 22:06:36 78° W 22:10:35 10° N
Cosmos 405 3.5 22:03:50 10° NNW 22:07:24 60° W 22:09:58 17° S
H-2A R/B 4.2 22:06:16 10° ENE 22:07:31 11° ENE 22:08:46 10° NE
Cosmos 2237 Rocket 4.2 22:05:48 10° NNE 22:08:31 13° ENE 22:10:50 11° E
Cosmos 2322 Rocket 4.2 22:06:29 10° NW 22:10:50 24° WSW 22:15:11 10° SSW
Cosmos 923 Rocket 4.3 22:06:02 10° NNW 22:11:11 65° WSW 22:15:09 17° S
Cosmos 1898 Rocket 3.4 22:07:14 10° S 22:12:21 70° ESE 22:17:32 10° NNE
Cosmos 2322 3.8 22:08:27 10° NNW 22:14:10 76° WSW 22:18:02 21° S
Cosmos 220 Rocket 4.3 22:13:44 29° SSE 22:15:29 45° ESE 22:19:43 10° NNE
Cosmos 858 Rocket 4.4 22:10:30 10° S 22:15:40 67° ESE 22:20:50 10° NNE
Cosmos 1271 Rocket 4.3 22:14:11 10° NNE 22:17:01 20° ENE 22:17:01 20° ENE
NOSS 3-1 (A) 3.6 22:12:57 10° SW 22:18:42 73° WNW 22:24:59 10° NNE
Cosmos 2360 Rocket 2.4 22:13:05 10° NNW 22:18:42 66° WSW 22:22:32 21° S
SPOT 1/Viking Rocket 4.3 22:17:51 27° ESE 22:19:36 35° ENE 22:24:14 10° N
H-2A R/B 2.5 22:19:18 20° S 22:22:18 63° WSW 22:26:47 10° NNW
Cosmos 1703 4.0 22:23:37 33° E 22:23:37 33° E 22:27:01 10° NNE
SL-16 R/B 4.4 22:19:54 10° NW 22:23:49 19° W 22:27:43 10° SW
SL-14 R/B 3.1 22:23:01 36° S 22:24:32 74° E 22:28:31 10° N
Cosmos 2150 Rocket 4.1 22:20:09 10° SSW 22:25:34 85° WNW 22:31:04 10° NNE
YAOGAN 6 3.0 22:27:34 44° E 22:27:46 44° ENE 22:31:13 10° N
Cosmos 1666 Rocket 3.4 22:25:55 28° S 22:28:11 84° E 22:32:36 10° N
Cosmos 1241 Rocket 4.4 22:22:22 10° SSW 22:28:25 61° ESE 22:34:32 10° NE
OTV 4 1.5 22:25:41 10° W 22:28:33 44° NNW 22:29:40 29° NE
Meteor 2-11 Rocket 4.5 22:22:39 10° N 22:28:43 61° E 22:31:29 33° SSE
Cosmos 1707 Rocket 3.5 22:25:12 10° N 22:29:34 67° E 22:30:45 45° SSE
Cosmos 2315 Rocket 3.9 22:23:26 10° N 22:29:39 89° W 22:33:35 24° S
Terra 3.8 22:31:05 14° ENE 22:31:25 14° ENE 22:33:52 10° NE
Meteor 1-27 4.1 22:28:04 10° N 22:33:43 73° E 22:36:03 36° SSE
ATLAS 2AS CENTAUR R/B 2.9 22:33:32 10° SSW 22:40:37 61° ESE 22:48:21 10° NE
Cosmos 1470 Rocket 4.1 22:42:21 40° ENE 22:42:21 40° ENE 22:46:02 10° NNE
Cosmos 2227 Rocket 2.1 22:39:39 32° S 22:42:11 63° ESE 22:47:47 10° NNE
Cosmos 1933 Rocket 4.1 22:43:16 41° E 22:43:16 41° E 22:47:10 10° NNE
CZ-4 SHROUD 3.9 22:45:24 50° W 22:45:24 50° W 22:48:23 10° NNW
ERBS 3.8 22:42:17 10° WSW 22:45:35 38° NW 22:48:53 10° NNE
Envisat 3.9 22:45:26 22° SSW 22:48:22 44° W 22:53:12 10° NNW
Cosmos 1300 3.0 22:45:28 10° NNW 22:49:15 61° W 22:49:47 54° SW
Tiangong 1 4.2 22:47:45 10° NW 22:49:17 13° NNW 22:50:49 10° NNE
SL-08 R/B 4.4 22:46:40 33° S 22:49:39 79° E 22:55:57 10° N
OAO 2 Rocket 3.8 22:45:01 10° W 22:50:17 63° N 22:53:39 22° ENE
NOSS 0 Rocket 4.4 22:46:06 10° N 22:51:59 45° ENE 22:53:27 38° E
MetOp-A 4.3 22:51:20 38° S 22:53:24 69° WSW 22:58:44 10° NNW
Cosmos 1745 Rocket 3.9 22:52:10 40° SSE 22:54:31 74° E 23:00:41 10° N
ATLAS 3B R/B 4.3 22:51:33 10° N 22:56:31 20° NE 22:59:20 16° ENE
Sakura Rocket 4.3 22:52:48 10° WSW 22:54:47 24° SW 22:54:47 24° SW
SL-16 R/B 4.0 23:00:00 10° NNE 23:03:38 17° ENE 23:04:25 17° ENE
Lacrosse 4 Rocket 4.0 23:02:18 10° NE 23:03:41 11° NE 23:03:42 11° NE
USA 32 3.9 22:58:47 10° N 23:04:04 85° E 23:04:53 64° SSE
ARGOS 3.0 23:03:30 60° SSE 23:04:31 84° ENE 23:09:56 10° N
Hubble Space Telescope 2.5 23:02:00 10° WSW 23:03:43 23° WSW 23:03:43 23° WSW
Delta 2 Rocket 4.0 23:02:44 10° WNW 23:05:23 42° NW 23:05:23 42° NW
Cosmos 2333 Rocket 2.5 23:01:16 10° N 23:06:52 51° ENE 23:07:32 48° E
Cosmos 1937 Rocket 4.4 23:03:27 12° SW 23:08:01 46° WNW 23:13:01 10° N
CZ-4 R/B 4.1 23:03:55 10° N 23:08:46 67° WNW 23:10:05 46° SW
Cosmos 2297 Rocket 2.0 23:07:58 62° SSE 23:08:49 74° ESE 23:14:28 10° NNE
Cosmos 1455 3.7 23:07:54 10° N 23:10:08 30° NNE 23:10:08 30° NNE
Cosmos 1386 Rocket 4.3 23:13:36 61° SSE 23:14:38 78° E 23:20:38 10° N
Cosmos 990 Rocket 4.5 23:13:16 31° SW 23:15:30 56° WNW 23:20:34 10° N
COSMOS 2455 4.2 23:12:05 10° N 23:17:02 26° NE 23:17:55 25° ENE
Cosmos 2219 Rocket 2.0 23:12:48 10° NNW 23:18:25 88° ENE 23:18:54 76° SSE
COSMOS 2428 3.6 23:13:16 10° NW 23:18:33 41° WSW 23:19:59 35° SW
Cosmos 1726 3.7 23:15:31 10° NNW 23:18:49 30° W 23:18:49 30° W
CARTOSAT-1 4.5 23:25:07 42° NNE 23:25:07 42° NNE 23:28:15 10° N
Cosmos 1862 Rocket 4.2 23:24:20 10° N 23:27:33 49° N 23:27:33 49° N
Meteor 2-10 4.4 23:26:39 10° NNW 23:32:20 64° W 23:33:01 58° SW
Cosmos 2181 Rocket 4.5 23:33:52 10° N 23:39:48 47° ENE 23:39:48 47° ENE
Cosmos 1980 3.6 23:35:26 10° NNW 23:40:54 81° WNW 23:40:54 81° WNW
H-2A R/B 2.2 23:46:30 74° WNW 23:46:30 74° WNW 23:51:34 10° NNW
FALCON 9 R/B 3.6 23:26:54 10° W 23:50:58 78° N 23:54:02 40° E
Cosmos 2237 Rocket 2.3 23:47:25 10° NNW 23:52:39 68° WNW 23:52:39 68° WNW
